Location: *
(50.8512°N, 5.6907°E)
Time: 07:32:46
(UTC+00:00)

Nadezhda 3 Rocket - Pass Details

Date: 09 April 2020
Orbit: 956 x 1000 km, 82.9° (Epoch: 01 June)

Event Time Altitude Azimuth Distance (km) Brightness Sun altitude
Exits shadow 21:41:21 42° 206° (SSW) 1,384 4.5 -25.9°
Maximum altitude 21:43:37 74° 281° (W) 1,027 4.1 -26.1°
Drops below altitude 10° 21:49:55 10° 7° (N) 2,740 7.0 -26.6°
Sets 21:52:27 0° 10° (N) 3,686 7.8 -26.8°
